Wind_Speed
20 20 21 22 24 24 25 26 27 27 28 29 30 31 32 33 33 33 34 34 35 35 35 35 35 35 35 35 35 36 36 37 37 37 38 38 38 38 39 39 39 39 39
21 21 22 24 24 25 26 27 27 28 29 30 31 32 33 33 33 33 34 35 35 35 35 35 35 35 35 35 36 36 37 37 37 37 38 38 38 39 39 39 39 39 39
22 23 24 25 26 26 27 28 28 29 30 31 32 32 33 33 33 34 35 35 35 35 35 35 36 36 36 36 36 37 37 37 38 38 38 39 39 39 39 39 39 39 39
23 24 25 26 26 27 28 29 30 30 31 32 33 33 33 34 34 34 35 35 35 35 35 36 36 36 36 37 37 37 38 38 38 38 38 39 39 39 39 39 40 40 40
24 25 26 26 27 28 29 30 30 31 32 33 33 34 34 34 35 35 36 36 35 36 36 36 36 37 37 37 38 38 38 38 38 39 39 39 40 40 40 40 41 41 41
26 26 27 27 28 29 30 30 31 32 33 34 34 34 35 35 35 36 36 36 36 36 37 37 37 37 38 38 39 38 39 39 39 40 40 40 41 41 41 41 42 42 42
27 28 28 29 29 30 31 32 32 33 34 34 35 35 35 36 36 36 36 36 37 37 37 37 37 38 39 39 39 39 40 40 41 41 41 41 42 42 43 43 43 43 43
28 29 29 30 30 31 32 32 33 34 34 35 36 36 36 36 36 36 37 37 37 38 38 38 38 39 39 39 40 40 41 41 42 42 43 43 44 45 45 45 45 45 45
29 30 30 31 31 32 33 33 34 34 35 36 36 37 36 36 36 36 37 37 38 38 38 39 39 40 40 40 41 42 43 43 44 44 45 46 47 47 47 47 47 48 48
30 31 31 32 32 32 33 34 34 35 36 36 36 37 37 37 37 36 37 38 38 39 39 40 40 41 41 42 42 43 44 45 45 46 47 48 49 49 49 50 50 50 50
31 32 32 32 32 33 33 34 35 35 36 36 37 37 38 38 38 38 37 38 39 40 40 40 41 42 42 43 44 45 46 47 48 49 50 51 51 52 52 53 53 53 53
32 33 33 33 33 33 34 34 35 36 36 37 37 37 38 38 38 39 39 39 40 40 41 41 42 43 44 45 47 47 48 49 50 52 52 53 54 54 55 55 56 56 56
33 33 33 33 33 34 34 35 36 36 37 37 37 37 38 38 39 40 40 41 41 41 41 42 43 44 46 47 49 49 50 52 53 54 55 56 56 57 57 57 58 58 59
34 34 34 33 34 34 35 36 36 37 37 37 37 38 38 39 40 40 41 42 42 42 43 44 45 47 48 49 50 51 53 54 56 57 58 59 59 59 60 60 60 61 61
34 34 34 34 34 34 35 36 36 37 37 37 37 38 39 39 40 41 42 43 43 43 44 45 47 48 50 51 53 54 56 57 58 60 61 61 61 61 61 61 61 61 61
34 33 34 34 35 35 35 36 36 37 37 37 38 38 39 40 41 42 43 44 44 45 46 47 49 50 52 53 55 57 59 60 62 62 62 62 62 62 61 61 61 61 60
34 34 34 35 35 35 36 36 36 37 37 38 38 39 40 41 41 43 43 44 45 46 47 49 51 52 54 56 58 60 61 63 63 63 63 62 62 62 62 61 61 60 59
34 34 35 35 35 36 36 36 37 37 37 38 39 40 41 42 42 43 44 45 47 48 49 50 52 54 56 58 60 62 63 63 63 63 62 62 62 62 61 60 59 59 58
35 35 35 35 35 36 36 37 37 37 38 39 39 40 41 42 43 44 45 47 48 49 51 52 54 56 58 60 61 62 62 62 62 63 62 62 61 60 60 59 58 58 57
35 35 35 35 35 36 36 37 38 38 38 39 40 41 42 43 44 45 46 48 49 50 52 54 56 57 59 60 62 62 61 62 63 63 62 61 60 59 58 58 57 56 56
35 35 35 35 35 36 37 37 38 38 39 40 40 41 42 43 45 46 47 48 50 51 53 55 57 58 59 61 61 62 62 62 62 61 60 59 58 57 57 56 55 55 54
35 35 35 35 36 36 37 37 38 39 40 40 41 42 43 44 46 47 48 49 51 53 55 57 58 59 59 61 61 62 63 62 60 58 57 56 56 55 54 54 54 54 52
36 36 36 36 36 36 37 38 39 40 40 41 41 42 43 45 46 47 48 50 52 54 56 57 58 59 60 61 62 63 62 61 59 57 56 55 54 53 53 52 52 50 48
35 36 36 36 36 36 37 38 39 40 40 41 42 43 44 45 46 47 49 51 53 55 56 58 58 60 61 62 62 62 61 59 58 57 55 53 52 52 51 50 47 45 43
36 36 36 36 36 37 37 38 39 39 40 41 42 43 44 45 46 48 50 52 53 55 56 57 58 60 61 62 62 61 59 57 55 53 53 52 51 49 48 46 44 42 41
36 36 36 36 36 37 37 38 39 40 40 41 42 43 44 45 47 49 50 52 53 54 55 57 59 60 62 62 61 59 57 55 53 51 50 50 49 47 44 43 42 40 39
Wind_Direction
294 296 298 300 302 304 306 307 308 308 308 309 309 309 310 309 309 309 309 309 309 308 308 307 307 306 305 304 303 303 302 301 300 299 298 297 295 294 293 292 291 289 288
294 296 298 300 302 304 306 307 308 308 309 308 309 310 310 309 309 309 310 310 309 308 308 308 307 306 305 305 304 304 303 302 301 300 299 298 297 296 295 294 292 291 289
293 296 298 300 302 304 305 307 308 308 308 308 309 309 310 310 310 310 311 310 310 309 308 308 307 306 306 306 305 305 304 303 302 301 300 300 299 297 297 295 294 292 290
293 296 299 301 302 304 306 307 307 308 308 308 309 309 310 311 310 310 310 310 309 309 308 308 308 307 307 306 306 305 304 303 303 302 301 301 300 299 298 296 295 294 292
293 295 298 300 302 304 305 307 307 307 308 308 309 309 310 311 310 310 310 310 309 309 309 308 308 308 308 307 306 306 305 304 304 303 302 301 300 299 298 297 296 295 293
292 295 297 299 301 303 305 306 306 307 307 308 308 309 309 310 310 310 309 309 309 309 309 309 309 308 308 307 307 306 305 304 303 303 302 301 300 300 298 297 296 295 294
291 294 296 298 300 302 303 305 306 307 307 308 308 308 309 309 309 309 309 309 309 309 309 309 308 308 308 307 306 306 305 304 304 303 302 302 301 300 299 298 296 295 294
290 293 295 297 299 301 302 304 305 306 307 307 307 308 308 309 309 309 309 309 308 308 309 309 308 308 308 307 306 306 305 305 304 303 302 301 301 300 299 298 297 296 295
290 292 293 296 298 300 301 303 305 305 306 307 307 308 308 308 308 308 308 308 308 308 308 308 308 308 308 307 307 306 305 305 304 303 302 302 301 300 299 298 297 296 295
288 291 293 295 297 299 301 302 304 305 306 307 307 307 308 308 308 307 308 308 308 308 308 308 308 308 308 307 306 306 305 305 304 304 303 302 301 300 299 298 297 296 295
287 290 292 294 296 298 300 302 304 305 306 306 307 307 307 307 307 307 307 307 308 308 308 308 308 308 308 307 307 306 306 305 304 304 303 302 301 300 299 298 297 296 294
287 289 292 293 295 297 299 302 303 305 305 306 306 306 306 306 306 307 307 307 307 307 308 308 308 308 308 307 307 306 306 305 304 304 303 303 301 300 299 298 296 295 294
286 288 290 292 295 297 299 301 303 304 305 305 305 305 305 306 306 306 307 307 307 307 307 308 307 307 307 307 307 306 306 305 304 304 304 303 301 300 299 298 296 295 294
284 287 289 291 294 296 298 300 302 303 303 304 304 304 305 305 305 306 306 307 307 307 308 308 308 308 308 307 307 307 306 306 305 304 304 303 302 300 299 297 296 295 294
282 285 287 291 293 295 297 299 301 302 302 303 303 303 304 305 305 306 306 306 307 308 308 308 308 308 308 308 307 307 307 306 306 305 304 303 302 301 299 299 298 297 295
281 283 286 289 291 294 296 298 300 301 301 302 302 303 304 305 305 305 306 306 307 308 309 309 308 308 308 308 308 308 308 307 307 306 305 304 303 302 301 300 299 297 296
280 283 285 288 290 293 295 297 298 299 300 301 302 302 303 304 305 306 306 307 307 308 309 309 309 309 309 309 309 309 309 308 307 307 306 305 305 303 302 301 300 298 298
279 281 285 287 290 292 294 296 297 298 300 301 301 302 303 304 305 306 306 307 307 308 309 309 310 309 309 309 309 310 309 309 308 307 307 306 305 304 303 302 301 300 299
278 281 283 286 289 291 293 295 296 298 299 300 301 302 303 304 305 306 306 307 308 309 309 310 311 310 310 310 310 310 310 310 309 308 307 307 306 305 305 303 302 301 300
278 281 283 286 289 291 293 295 296 298 299 300 301 302 303 304 305 305 306 307 308 309 310 311 312 312 312 312 312 311 311 311 310 309 308 307 307 306 305 305 304 303 302
277 280 283 286 288 290 292 294 295 298 299 300 301 303 303 304 305 306 307 308 309 311 312 312 313 314 314 314 313 313 313 312 311 310 309 309 308 307 307 306 305 304 303
277 279 282 285 288 290 292 294 296 298 299 300 301 302 303 304 305 306 308 310 311 312 313 313 314 315 315 315 314 315 314 313 312 311 310 310 309 309 308 307 307 306 304
276 279 282 285 287 290 292 294 296 297 298 300 301 302 303 304 306 308 309 311 312 313 314 315 315 316 316 316 316 316 316 315 314 313 313 312 311 311 310 309 309 308 307
277 280 282 285 288 290 292 294 296 297 298 300 301 302 304 305 307 308 310 311 313 314 314 315 316 317 317 317 317 317 317 316 315 315 315 314 313 313 312 312 312 311 309
277 280 283 286 288 290 292 294 296 297 298 300 301 303 305 306 308 309 311 312 313 314 315 316 317 318 318 318 318 318 318 317 317 317 316 316 315 315 315 315 314 313 312
277 280 283 286 288 290 292 295 296 297 299 301 302 304 305 307 308 310 311 313 314 315 316 317 318 319 319 319 319 318 318 318 318 318 317 317 317 317 316 316 315 313 312
Height
5843 5842 5841 5840 5838 5837 5835 5833 5831 5829 5826 5824 5821 5819 5816 5813 5810 5807 5803 5800 5797 5793 5790 5787 5783 5780 5777 5773 5770 5767 5764 5761 5758 5754 5751 5749 5746 5743 5741 5738 5736 5733 5731
5839 5838 5837 5835 5834 5832 5830 5828 5826 5824 5821 5819 5816 5813 5810 5807 5804 5801 5798 5794 5791 5787 5783 5780 5777 5773 5770 5767 5763 5760 5756 5753 5750 5747 5744 5741 5738 5735 5732 5729 5727 5724 5722
5834 5833 5832 5831 5829 5827 5825 5823 5821 5818 5816 5813 5810 5808 5805 5801 5798 5795 5792 5788 5784 5781 5777 5774 5770 5766 5763 5760 5756 5753 5749 5746 5742 5739 5736 5732 5729 5726 5723 5720 5718 5715 5713
5830 5829 5827 5826 5824 5822 5820 5818 5815 5813 5810 5808 5805 5802 5799 5795 5792 5789 5786 5782 5778 5774 5771 5767 5763 5760 5756 5753 5749 5745 5741 5738 5734 5731 5727 5724 5721 5718 5714 5711 5709 5706 5703
5825 5824 5822 5820 5819 5817 5815 5812 5810 5808 5805 5802 5799 5796 5793 5789 5786 5782 5779 5775 5772 5768 5764 5761 5757 5753 5749 5745 5741 5738 5734 5730 5726 5723 5719 5716 5712 5709 5705 5702 5699 5696 5693
5819 5818 5817 5815 5813 5811 5809 5807 5804 5802 5799 5796 5793 5790 5787 5783 5780 5776 5772 5769 5765 5761 5758 5754 5750 5746 5742 5738 5734 5730 5726 5722 5718 5714 5711 5707 5703 5700 5696 5693 5689 5686 5683
5814 5813 5811 5810 5808 5806 5803 5801 5798 5796 5793 5790 5787 5784 5780 5777 5773 5770 5766 5762 5758 5754 5751 5747 5743 5739 5735 5730 5726 5722 5718 5714 5710 5706 5702 5698 5694 5690 5686 5683 5679 5676 5673
5808 5807 5806 5804 5802 5800 5797 5795 5792 5789 5787 5784 5781 5777 5774 5771 5767 5763 5759 5755 5751 5747 5744 5740 5735 5731 5727 5723 5718 5714 5709 5705 5701 5697 5692 5688 5684 5680 5676 5672 5668 5665 5661
5802 5801 5799 5798 5796 5793 5791 5789 5786 5783 5780 5777 5773 5771 5767 5764 5761 5757 5752 5748 5744 5740 5736 5732 5728 5723 5719 5714 5710 5705 5701 5696 5691 5687 5682 5678 5674 5669 5665 5661 5657 5653 5649
5796 5794 5793 5791 5789 5787 5785 5782 5779 5776 5773 5770 5766 5763 5760 5756 5753 5750 5746 5741 5737 5733 5729 5724 5720 5715 5710 5706 5701 5696 5691 5686 5681 5677 5672 5667 5662 5657 5653 5648 5644 5640 5636
5789 5788 5786 5785 5783 5780 5778 5775 5772 5769 5766 5763 5760 5756 5752 5749 5745 5742 5739 5735 5730 5725 5721 5716 5711 5707 5702 5697 5692 5686 5681 5676 5671 5665 5660 5655 5650 5645 5640 5635 5630 5626 5622
5782 5781 5779 5778 5776 5773 5771 5768 5765 5762 5759 5756 5752 5749 5745 5741 5737 5734 5730 5726 5722 5718 5713 5708 5703 5698 5693 5688 5682 5677 5671 5665 5659 5654 5648 5642 5637 5631 5626 5620 5615 5611 5606
5775 5774 5772 5770 5769 5766 5764 5761 5758 5755 5752 5748 5745 5741 5737 5734 5730 5726 5722 5718 5714 5710 5705 5700 5694 5689 5683 5678 5672 5666 5660 5654 5647 5641 5635 5629 5623 5616 5610 5605 5599 5594 5589
5768 5766 5765 5763 5761 5759 5757 5754 5751 5748 5744 5741 5737 5733 5730 5726 5722 5718 5713 5709 5705 5701 5696 5691 5685 5679 5673 5667 5661 5655 5648 5642 5635 5628 5621 5614 5607 5601 5594 5588 5582 5577 5571
5760 5759 5757 5755 5754 5751 5749 5746 5743 5740 5737 5733 5730 5726 5722 5718 5714 5709 5705 5700 5696 5692 5687 5681 5675 5669 5663 5656 5650 5643 5636 5629 5621 5613 5605 5598 5591 5584 5577 5571 5564 5558 5552
5752 5751 5750 5748 5746 5744 5741 5738 5736 5732 5729 5725 5722 5718 5714 5710 5705 5701 5696 5691 5686 5681 5677 5671 5665 5658 5652 5645 5638 5630 5623 5615 5606 5598 5589 5581 5574 5566 5559 5553 5546 5540 5534
5744 5743 5742 5740 5738 5736 5733 5730 5727 5724 5721 5717 5714 5710 5706 5702 5697 5692 5687 5682 5677 5671 5666 5661 5654 5647 5640 5633 5625 5617 5609 5600 5591 5582 5573 5565 5557 5549 5542 5535 5528 5522 5516
5735 5734 5733 5731 5730 5727 5725 5722 5719 5716 5713 5709 5706 5702 5698 5693 5689 5684 5678 5673 5667 5661 5656 5651 5644 5636 5628 5621 5612 5604 5594 5585 5576 5567 5558 5549 5541 5533 5525 5518 5511 5504 5498
5726 5725 5724 5723 5721 5719 5716 5714 5711 5708 5704 5701 5697 5693 5688 5684 5679 5674 5669 5663 5657 5651 5645 5639 5632 5624 5616 5607 5599 5590 5580 5570 5561 5552 5543 5534 5525 5517 5509 5501 5494 5488 5481
5718 5717 5715 5714 5712 5710 5708 5705 5702 5699 5695 5692 5688 5684 5679 5675 5670 5665 5659 5653 5647 5641 5634 5627 5620 5612 5603 5594 5585 5576 5567 5557 5547 5537 5527 5518 5510 5501 5494 5486 5479 5472 5465
5709 5708 5706 5705 5703 5701 5699 5696 5693 5690 5687 5683 5679 5675 5670 5665 5660 5655 5649 5643 5637 5630 5623 5615 5608 5600 5590 5581 5571 5562 5552 5543 5533 5522 5513 5504 5495 5487 5479 5471 5463 5456 5449
5700 5699 5697 5696 5694 5692 5690 5687 5684 5681 5677 5674 5670 5665 5661 5656 5650 5644 5639 5632 5626 5619 5611 5604 5596 5587 5577 5567 5558 5547 5537 5528 5520 5511 5500 5491 5482 5473 5465 5457 5449 5442 5435
5690 5689 5688 5686 5685 5683 5680 5678 5675 5672 5668 5664 5660 5656 5651 5646 5640 5634 5628 5622 5614 5606 5599 5591 5583 5573 5564 5555 5545 5535 5523 5512 5503 5494 5486 5478 5468 5460 5451 5443 5435 5428 5421
5681 5680 5679 5677 5676 5673 5671 5669 5665 5662 5659 5655 5651 5646 5641 5636 5630 5625 5619 5611 5604 5596 5588 5579 5571 5561 5551 5540 5530 5520 5510 5500 5490 5480 5471 5464 5456 5448 5439 5431 5423 5416 5409
5672 5671 5670 5668 5666 5664 5662 5659 5656 5653 5649 5645 5641 5636 5631 5626 5620 5615 5609 5602 5594 5585 5575 5566 5557 5548 5537 5527 5517 5507 5497 5488 5479 5470 5460 5452 5445 5437 5429 5420 5413 5405 5399
5662 5661 5660 5658 5657 5655 5652 5649 5646 5643 5640 5636 5631 5627 5621 5616 5610 5603 5597 5590 5583 5574 5565 5556 5546 5536 5525 5515 5504 5494 5485 5476 5467 5460 5451 5442 5434 5426 5421 5412 5404 5397 5390